Theta_e
320 325 328 328 335 337 340 345 344 345 343 346 343 337 337 338 341 359 350 342 338 341 323 327 334 337 338 338 337 337 334 328 325 328 332 333 333 334 334 335 336 336 336 337 337 339 341 342 342
326 330 326 330 335 339 340 343 345 345 342 344 346 341 341 339 347 353 351 345 340 341 326 324 330 334 336 336 336 336 331 325 325 326 328 331 334 334 335 336 336 335 335 334 333 332 331 331 331
324 328 328 335 336 338 339 338 341 345 343 343 344 347 346 346 347 351 353 345 342 340 333 323 327 332 329 330 332 330 326 325 325 325 326 328 329 331 332 332 331 330 329 329 328 328 328 328 328
327 326 328 334 337 336 337 338 339 341 342 345 345 347 348 355 352 353 351 347 345 339 337 324 323 324 323 325 327 326 325 325 325 325 326 326 326 326 327 327 327 326 326 326 325 324 324 324 325
326 328 334 337 338 337 336 335 333 339 343 345 346 349 352 356 355 354 351 348 346 340 341 324 323 323 323 323 325 325 325 325 326 326 327 327 327 327 327 326 326 326 326 326 327 328 327 327 326
326 328 335 338 338 338 337 334 333 335 342 344 346 347 354 356 356 354 350 348 346 344 349 324 324 324 323 323 324 324 324 325 326 326 326 326 327 329 332 332 332 331 330 330 332 332 332 330 331
327 331 334 337 338 338 338 335 334 335 338 342 346 348 355 354 355 354 350 349 348 348 350 330 326 324 324 323 323 323 323 324 325 325 327 330 334 335 332 331 331 328 333 342 344 343 342 342 342
324 328 330 333 336 338 338 336 334 334 337 343 346 343 344 352 354 353 350 349 349 349 350 345 338 332 327 324 323 323 323 324 325 327 332 336 337 329 329 326 328 341 344 343 332 328 323 332 343
323 325 326 329 332 336 335 337 335 335 335 340 337 338 346 355 352 351 349 349 349 349 351 348 345 343 340 336 325 324 324 325 327 332 336 337 335 330 337 344 344 344 328 320 323 321 321 320 331
325 326 325 327 329 331 333 335 335 334 334 336 334 336 344 353 350 349 350 351 350 349 350 350 348 346 343 342 335 326 326 328 332 337 339 329 345 348 350 349 343 321 318 320 325 323 322 330 331
325 325 325 325 325 326 329 331 333 334 333 332 333 338 346 349 350 348 349 350 349 348 348 348 349 349 344 343 344 340 342 342 346 347 340 346 348 351 350 345 335 334 330 333 328 328 327 326 326
325 325 324 324 325 325 327 328 331 333 332 332 331 333 343 348 350 349 349 350 349 348 348 347 348 351 347 345 345 345 346 348 348 345 343 349 352 349 345 332 332 326 328 323 327 325 321 326 325
324 325 324 324 324 324 325 326 327 330 330 331 330 331 342 347 350 349 350 351 351 350 348 348 349 351 349 347 347 347 347 346 344 346 347 351 350 346 332 333 330 325 326 326 325 325 324 324 323
322 323 323 323 323 323 324 325 325 326 328 330 330 330 334 342 348 351 352 351 351 350 350 347 348 350 351 349 349 347 344 344 345 350 352 351 343 333 334 325 327 326 325 324 324 318 321 323 322
322 323 323 323 322 323 322 323 324 324 326 329 331 330 331 338 343 349 352 351 350 350 350 347 348 350 352 351 348 346 345 346 348 348 348 342 336 322 330 327 326 321 317 322 323 324 323 322 323
322 323 323 324 323 322 322 322 324 323 323 327 328 331 332 336 340 345 351 352 350 348 348 348 347 350 352 347 346 346 347 348 347 344 339 334 328 318 320 323 325 319 320 324 324 323 323 323 324
323 322 322 322 324 324 324 323 324 323 323 323 326 328 332 333 339 343 348 352 350 347 347 348 346 345 342 344 342 347 350 347 341 335 332 326 321 316 325 326 318 318 320 319 323 323 322 324 325
321 322 322 322 324 323 323 323 324 324 324 323 324 327 328 330 337 342 346 349 351 348 346 346 343 333 333 337 345 350 350 342 336 332 330 319 324 318 320 319 317 321 324 322 315 316 321 324 325
322 322 323 324 324 324 323 324 324 324 324 325 324 325 326 327 330 345 346 348 351 349 346 343 341 333 334 336 344 349 346 340 335 330 327 317 320 317 318 317 317 319 317 315 316 324 321 322 326
322 322 322 323 323 323 323 323 324 324 324 324 324 324 325 327 329 336 348 347 336 349 347 343 344 342 335 336 346 348 344 339 333 330 321 317 316 317 317 318 318 323 316 316 315 321 326 322 317
320 321 321 321 322 322 322 322 323 323 323 323 323 323 324 324 328 332 348 348 351 348 349 346 343 344 337 343 346 348 344 339 334 331 318 316 316 317 317 318 325 317 327 319 316 316 325 326 321
321 321 320 320 321 322 323 322 323 324 324 324 324 323 323 324 325 336 342 350 350 335 332 348 346 342 339 345 349 347 345 341 336 332 322 316 316 317 317 317 318 317 328 317 316 315 319 324 324
320 321 321 321 322 322 322 322 322 324 324 325 325 324 323 323 324 328 342 352 353 346 338 339 338 338 347 346 348 347 346 344 338 334 329 317 316 317 317 317 317 317 323 317 317 315 320 318 323
320 320 321 321 321 322 322 322 322 323 325 325 325 324 324 324 324 325 327 347 354 352 351 352 350 341 338 346 346 349 347 344 340 335 330 323 317 317 318 318 318 317 321 317 317 315 314 314 314
321 321 322 322 322 321 322 322 323 324 325 326 327 327 328 328 327 326 326 326 341 353 353 354 352 334 339 341 344 345 346 342 342 337 333 328 322 317 318 318 318 318 317 317 317 315 314 313 313
322 322 322 323 323 323 323 322 322 324 326 326 325 326 327 328 329 329 329 329 330 335 348 353 355 350 337 334 343 340 335 341 343 343 338 331 326 319 318 318 318 318 317 317 317 315 318 314 316
323 323 323 326 324 323 323 323 323 327 328 327 326 326 328 328 328 329 330 330 330 331 337 350 352 353 343 335 336 335 333 332 346 342 340 334 329 325 319 319 318 318 318 317 317 327 315 316 319
322 323 324 324 327 327 324 323 323 327 327 327 327 327 327 327 328 329 330 332 332 331 333 345 347 354 353 352 349 346 341 343 348 344 342 339 330 327 321 320 319 318 318 318 317 325 315 318 321
319 321 322 323 326 328 326 323 328 328 329 328 327 325 325 326 328 329 330 332 332 332 330 333 341 345 349 352 353 349 346 345 347 344 343 340 331 327 327 320 319 319 318 318 318 323 319 319 320
315 317 322 324 326 325 325 327 327 327 327 326 324 322 323 324 326 328 329 330 332 334 333 329 330 342 343 346 351 349 346 349 349 343 341 334 330 329 326 321 320 320 319 318 318 317 322 319 320
Wind_Speed
6 6 6 10 8 8 16 11 8 7 1 3 3 3 5 10 6 6 11 14 21 21 25 24 23 22 20 19 17 15 13 13 12 12 11 9 8 7 6 6 5 3 2 3 3 3 3 5 6
4 7 9 13 10 14 12 10 9 12 4 1 6 5 2 7 13 13 15 16 22 21 25 24 24 22 20 18 18 16 15 13 13 13 11 9 8 6 5 4 2 1 1 2 3 5 6 6 6
7 8 13 13 14 16 4 3 8 11 7 4 4 2 1 4 8 11 11 23 25 21 23 25 24 22 20 19 18 17 15 14 13 12 11 9 8 6 4 3 3 4 4 4 4 6 7 8 7
5 9 13 12 20 17 13 9 3 2 6 8 9 7 6 6 7 8 17 22 24 22 22 24 24 22 20 19 18 17 15 14 13 12 11 9 8 6 5 5 5 6 6 6 6 7 8 8 9
12 13 13 18 20 22 3 11 0 8 7 8 8 7 6 6 7 11 20 23 24 23 21 25 24 22 21 20 18 17 15 14 13 12 10 9 7 6 5 5 6 6 6 6 7 8 9 10 10
15 18 15 17 22 20 6 7 4 9 8 8 7 10 8 10 9 14 20 25 23 23 20 27 25 24 22 20 19 18 16 14 13 11 9 7 6 6 6 6 6 5 5 6 7 8 8 8 8
20 14 19 23 22 16 10 13 4 10 10 7 6 10 11 10 11 18 22 24 24 23 19 27 26 25 22 21 19 17 16 14 12 11 9 7 7 6 7 6 6 5 5 6 6 6 6 6 6
23 14 26 21 21 22 13 9 13 9 11 9 8 6 9 17 15 19 23 24 24 23 20 22 25 25 23 22 20 18 16 14 13 12 10 8 7 6 5 4 4 4 6 6 7 8 7 6 6
21 15 19 24 25 22 15 9 14 8 15 9 7 7 5 12 16 19 24 24 24 23 22 22 21 22 21 19 21 20 18 16 14 12 10 7 2 2 2 2 5 5 7 8 7 8 8 8 7
18 16 24 22 22 20 22 12 17 10 16 8 12 8 3 13 18 21 25 26 26 26 25 23 22 21 20 18 20 20 19 16 14 11 10 6 7 7 10 7 6 7 7 8 10 10 8 8 7
23 21 20 25 28 27 17 18 12 11 14 16 10 7 8 15 20 21 23 24 25 24 24 24 24 22 21 18 17 17 14 13 12 11 10 8 8 7 4 6 5 7 10 7 8 9 6 6 5
23 25 26 31 23 17 15 23 25 16 19 6 5 4 8 14 20 22 23 23 24 25 24 25 25 23 22 19 16 16 14 14 12 12 12 10 8 4 6 4 4 4 4 5 6 4 8 6 6
20 23 27 22 26 24 21 22 25 18 21 23 6 7 10 11 18 21 22 22 23 25 25 26 25 24 23 20 16 16 15 14 12 12 12 10 7 7 5 6 2 2 2 4 5 5 6 5 6
23 24 23 27 20 22 23 23 24 27 24 23 19 20 13 13 15 19 23 24 25 24 25 26 26 26 24 21 19 17 16 14 13 12 11 12 9 9 7 3 2 1 1 3 3 6 6 5 5
19 22 19 20 24 21 22 23 26 31 28 24 33 18 20 15 13 19 23 24 24 24 25 27 26 24 24 21 20 17 16 14 13 11 14 10 11 12 9 6 3 1 2 4 6 6 7 5 5
16 20 20 21 22 23 21 24 24 31 34 34 25 29 23 20 16 16 21 24 23 23 26 28 25 25 24 22 20 15 14 14 14 13 12 12 13 13 10 5 4 1 2 4 5 5 4 5 4
18 17 24 24 21 23 23 24 21 28 29 35 33 28 37 27 20 17 20 23 23 25 28 30 30 29 27 24 21 17 18 16 15 13 11 14 14 14 9 7 5 2 2 3 3 4 5 5 3
20 21 20 21 16 17 18 23 21 25 24 29 31 24 27 34 27 26 21 20 25 26 31 30 33 28 29 27 23 19 16 16 14 13 13 18 14 15 12 9 6 4 2 2 4 6 6 5 3
21 21 22 14 17 17 16 18 21 22 25 19 20 24 31 30 39 33 31 20 22 22 31 34 35 36 35 32 27 24 20 20 16 14 19 20 18 16 14 10 8 7 4 3 4 5 8 7 3
18 20 23 19 19 14 17 21 20 20 19 23 23 26 25 29 32 28 21 30 34 32 31 31 32 38 37 35 28 23 20 19 18 17 20 21 20 18 15 12 9 8 5 5 7 7 3 6 9
19 19 20 21 21 22 20 23 23 24 28 28 27 29 27 30 30 28 30 31 36 35 27 31 36 36 38 33 29 27 22 20 21 21 21 23 21 19 17 14 10 8 6 3 6 9 8 3 8
20 17 18 19 17 17 19 18 22 23 26 25 30 30 29 29 30 30 29 32 33 37 35 32 37 39 37 33 30 31 29 27 23 21 22 26 24 21 20 17 13 9 6 4 4 6 8 8 6
18 19 19 17 18 20 22 16 20 16 19 16 17 25 30 28 30 31 35 33 32 30 37 49 51 40 31 37 32 36 30 24 23 22 24 27 26 25 22 19 15 12 8 6 5 5 7 7 6
17 19 22 20 18 17 24 22 21 18 21 22 14 19 17 19 25 29 28 35 35 34 36 40 44 43 40 36 36 35 30 25 24 26 28 27 29 28 26 22 19 15 11 8 6 5 5 6 6
16 16 13 16 15 19 22 22 20 15 20 5 6 6 8 8 10 13 14 22 35 34 34 37 35 41 39 39 31 41 34 30 27 30 29 30 30 32 30 26 22 18 13 10 7 5 5 5 6
24 22 16 23 18 20 21 23 20 17 9 2 5 1 4 7 9 8 12 15 13 26 31 34 30 37 52 49 50 40 36 32 52 47 36 34 33 31 32 28 24 19 16 12 8 6 4 3 5
17 21 21 25 26 21 22 21 18 12 10 8 5 1 5 7 6 6 7 11 13 12 29 31 35 36 37 50 53 53 36 48 50 47 40 31 26 27 31 28 26 22 18 14 10 8 6 4 4
19 18 15 14 23 26 21 23 18 21 17 11 11 8 3 4 5 5 5 5 8 12 11 26 30 33 36 39 45 51 49 45 39 41 44 36 30 27 28 30 29 24 20 16 13 13 9 5 3
17 18 20 19 17 15 19 18 11 4 7 12 8 5 4 3 6 8 8 7 6 5 9 13 23 28 31 35 37 47 44 41 40 43 45 34 33 28 31 27 30 27 23 20 17 14 12 8 5
11 16 21 10 18 20 19 12 12 7 10 3 7 6 6 6 8 9 10 11 10 8 7 9 17 22 25 29 30 33 41 41 45 49 44 33 27 22 34 28 29 28 26 23 20 19 14 12 7
Wind_Direction
264 301 303 272 246 231 269 174 94 96 318 347 69 235 154 110 164 76 127 145 163 163 168 170 169 166 168 168 168 169 166 161 158 164 153 149 145 140 134 125 117 109 77 48 43 48 37 25 13
240 262 272 271 255 258 240 118 160 144 140 258 280 127 291 136 75 116 135 151 161 164 167 173 172 170 171 173 173 174 171 164 167 165 162 163 160 162 158 151 161 188 244 301 329 336 340 344 345
208 245 271 245 245 260 358 69 36 104 124 196 229 253 170 65 127 139 145 153 160 162 163 177 172 173 173 175 176 174 172 172 170 167 169 171 176 185 190 210 240 257 267 281 298 308 314 318 323
207 235 250 256 259 249 296 91 18 175 160 190 216 182 182 116 142 160 154 159 164 162 164 174 173 175 176 175 177 177 176 176 174 172 173 177 185 198 216 238 255 266 278 291 300 304 308 313 320
224 256 252 252 243 263 142 287 48 235 195 188 195 156 148 157 158 164 159 163 162 163 173 175 175 176 177 177 179 181 182 180 180 178 178 183 193 210 229 247 260 272 288 299 307 310 310 314 320
225 238 249 247 248 243 220 260 277 261 199 176 211 243 109 144 159 163 162 163 163 165 173 177 177 178 179 180 183 185 187 187 186 187 188 196 210 228 246 258 268 280 296 309 316 317 318 323 327
238 236 243 258 262 259 216 208 264 238 258 197 177 237 112 153 161 163 164 164 165 169 171 176 178 181 182 183 186 188 192 194 194 198 201 212 228 247 262 270 277 288 303 314 325 331 328 327 330
236 250 260 249 260 261 234 197 242 254 264 98 168 196 241 165 158 162 166 166 170 172 176 172 178 183 185 186 189 191 195 199 202 205 210 223 241 254 258 265 275 297 308 316 319 321 318 314 317
227 252 243 246 252 257 265 248 241 238 263 176 205 246 51 135 160 165 169 172 174 176 179 177 177 178 176 184 191 193 196 202 208 212 217 227 224 233 301 259 278 303 312 317 321 321 322 337 351
229 230 242 248 258 263 260 248 251 187 225 202 210 207 204 170 173 177 179 180 181 182 182 181 180 181 176 182 194 193 199 203 206 215 221 188 183 194 199 271 290 306 319 338 340 344 355 1 326
223 244 245 245 259 269 296 296 252 253 227 216 192 142 188 186 190 189 193 189 187 185 183 183 179 181 180 186 189 183 191 192 197 196 211 163 205 198 193 298 354 350 340 349 325 334 335 295 309
232 245 249 268 273 262 256 269 272 252 255 268 149 202 191 196 199 202 200 194 188 185 186 183 181 179 181 186 185 185 189 192 196 197 193 192 205 196 201 201 231 352 300 329 326 322 315 343 334
236 250 253 254 261 273 261 252 259 246 249 264 231 228 190 204 206 209 207 199 195 189 185 183 182 177 179 183 183 188 188 193 195 193 190 191 196 196 181 206 187 202 348 338 342 330 335 348 342
248 248 257 262 250 254 253 256 258 248 252 262 264 246 231 201 207 207 207 200 197 192 190 183 182 177 177 179 184 185 182 187 185 191 192 190 185 190 197 195 170 215 24 347 4 324 2 354 353
254 265 255 249 258 247 252 255 246 250 249 224 240 257 240 209 208 211 210 205 195 194 191 188 180 175 177 182 181 179 183 179 190 189 191 179 176 187 181 181 153 209 347 12 0 11 347 352 10
263 249 257 248 237 236 239 253 245 241 244 243 227 248 242 227 219 211 208 204 196 194 189 189 179 177 180 180 180 178 182 186 188 191 186 188 188 187 167 154 168 176 31 13 7 3 8 360 22
237 246 239 248 248 231 217 247 250 252 238 237 241 220 243 234 209 212 206 202 201 197 191 186 183 180 185 186 180 174 196 181 186 184 184 185 190 185 161 171 179 146 70 40 57 13 45 5 66
245 228 235 258 260 206 249 256 243 257 247 245 236 231 227 250 210 201 205 197 203 198 205 188 184 196 189 193 177 176 193 180 187 184 186 190 183 183 167 186 174 137 102 68 60 65 46 38 100
275 284 284 273 245 253 250 252 252 238 251 250 252 235 238 216 248 189 185 190 200 201 210 192 186 199 193 194 180 182 185 182 184 183 201 189 187 185 182 183 176 157 156 108 68 52 51 30 79
252 261 266 271 265 266 252 252 260 264 253 253 252 247 236 236 224 219 193 190 202 206 206 199 197 202 199 198 181 186 186 185 182 183 201 191 192 190 185 187 179 168 154 106 78 99 68 41 80
251 252 264 258 260 237 253 259 253 253 252 250 248 249 247 246 235 204 190 191 188 178 206 207 208 210 204 196 180 185 186 186 182 193 200 199 198 194 194 190 181 186 147 111 91 80 120 45 42
252 245 247 266 267 255 238 255 251 237 238 243 241 241 246 242 250 204 206 188 194 204 203 228 211 213 206 196 186 190 192 191 193 193 199 203 203 200 203 193 193 182 169 184 106 105 98 93 62
252 264 260 244 249 266 260 264 266 261 245 238 231 238 238 236 235 238 196 195 197 195 205 202 213 232 205 205 199 200 195 201 196 188 198 205 205 206 207 201 196 200 180 184 165 107 116 90 89
253 256 252 258 261 245 244 250 254 244 238 239 212 250 249 247 237 235 231 197 191 194 201 208 211 203 228 218 189 201 194 200 201 194 200 200 207 210 209 206 202 199 197 196 170 132 98 97 87
248 239 251 245 235 246 247 245 249 262 266 24 49 17 354 331 285 275 280 231 198 190 203 207 206 211 211 220 211 214 201 208 216 210 206 197 204 207 211 208 205 202 201 202 187 159 133 98 79
240 235 236 247 252 259 241 233 244 234 124 166 205 319 346 339 329 306 277 286 278 212 212 208 205 203 211 219 210 214 216 243 236 230 220 211 207 212 215 211 209 205 206 206 197 181 153 115 82
258 257 256 255 272 276 272 267 273 145 160 173 151 10 14 337 313 302 287 281 280 271 212 215 218 210 214 214 220 212 216 205 217 218 214 209 201 210 218 212 211 207 209 207 199 196 189 156 100
264 276 275 248 253 254 259 262 260 191 188 162 151 146 92 336 311 309 300 295 282 268 257 216 213 207 213 226 225 217 208 215 207 213 213 208 199 202 219 213 210 211 210 210 200 213 201 170 142
262 239 250 264 261 256 270 257 25 30 100 150 118 101 79 12 356 346 342 339 322 291 257 241 217 220 217 211 214 215 215 218 208 206 215 208 199 195 224 222 211 212 214 214 203 202 214 196 196
286 279 282 256 255 266 272 250 55 53 117 105 92 50 22 18 21 354 359 5 354 336 309 268 245 221 218 215 217 227 215 214 212 202 203 192 185 217 234 231 220 218 217 216 209 207 210 207 216